Regional Weather Roundup
Issued by NWS Portland, ME

Home | Current Version | Previous Version | Text Only | Print | Product List | Glossary On
Versions: 1 2 3 4 5 6 7 8 9 10 11 12 13 14 15 16 17 18 19 20 21 22 23 24 25 26 27 28 29 30 31 32 33 34 35 36 37 38 39 40 41 42 43 44 45 46 47 48 49 50
000
ASUS41 KGYX 141310
RWRGYX
WEATHER ROUNDUP FOR MAINE AND NEW HAMPSHIRE
NATIONAL WEATHER SERVICE GRAY ME
800 AM EST SUN FEB 14 2016

MEZ002-005-006-010-012-015-018-020-021-024-026-027-029-141400-
MAINE

CITY           SKY/WX    TMP DP  RH WIND       PRES   REMARKS
PORTLAND       SUNNY     -6 -21  48 NW13G21   30.28R WCI -25
SANFORD        SUNNY     -9 -22  54 NW9       30.27R
BAR HARBOR     CLOUDY    -6 -15  65 NW13G22   30.16R WCI -25
WISCASSET      SUNNY     -8 -22  50 VRB6G18   30.26R
ROCKLAND       PTSUNNY   -5 -17  56 NW10G18   30.20R WCI -23
FRYEBURG       SUNNY     -9 -23  50 SW5       30.24R
LEWISTONAUBURN SUNNY     -9 -29  37 NW13      30.23R WCI -30
AUGUSTA        SUNNY    -10 -23  52 NW9       30.22R
WATERVILLE     SUNNY    -11 -22  58 NW8       30.20R
BANGOR         MOSUNNY   -8 -19  58 NW15G23   30.20R WCI -30
GREENVILLE       N/A    -18 -25  70 NW12G28   30.01R WCI -40
MILLINOCKET    SUNNY     -8 -21  53 W13G22    30.16R WCI -28
HOULTON        SUNNY     -6 -16  61 NW9       30.08R
PRESQUE ISLE   SUNNY     -7 -16  65 W9        30.10R
FRENCHVILLE    SUNNY    -14 -22  67 NW10      30.02R WCI -34
CARIBOU        SUNNY     -9 -19  61 NW12      30.07R WCI -28
$$

NHZ002-005-008-009-011-012-014-141400-
NEW HAMPSHIRE

CITY           SKY/WX    TMP DP  RH WIND       PRES   REMARKS
PORTSMOUTH     MOSUNNY  -10 -24  48 NW15      30.30R WCI -32
ROCHESTER      SUNNY     -9 -25  45 NW12G17   30.24R WCI -28
NASHUA         SUNNY     -9 -24  49 NW14      30.36R WCI -31
MANCHESTER     SUNNY     -9 -25  45 NW12G20   30.34R WCI -28
CONCORD        SUNNY    -11 -25  50 NW13      30.34R WCI -32
LACONIA        SUNNY    -11 -27  44 W14       30.31R WCI -33
PLYMOUTH       FAIR     -13 -26  51 W21G31    30.32R WCI -40
BERLIN         CLOUDY   -17 -27  60 VRB6      30.26R
WHITEFIELD     MOSUNNY  -18 -26  67 S5        30.32R
JAFFREY        MOSUNNY  -13 -26  52 N9        30.26R
KEENE          SUNNY    -11 -26  49 N10G17    30.38R WCI -30
LEBANON        SUNNY    -13 -25  55 NE8       30.39R
MT WASHINGTON  MOSUNNY  -22 -40  38 NW43G55     N/A  WCI -60
$$

VTZ005-007-008-141400-
VERMONT

CITY           SKY/WX    TMP DP  RH WIND       PRES   REMARKS
ST JOHNSBURY     N/A    -16 -25  63 MISG      30.38R
MONTPELIER     FAIR     -18 -26  67 NW9G17    30.37R HAZE
BURLINGTON     LGT SNOW -13 -22  64 N8        30.49R FOG
$$

MAZ007-012-024-CTZ003-RIZ002-NYZ038-NYZ072-141400-
SOUTHERN NEW ENGLAND AND NY

CITY           SKY/WX    TMP DP  RH WIND       PRES   REMARKS
BOSTON         MOSUNNY   -8 -23  47 NW23G31   30.35R WCI -34
WORCESTER      SUNNY    -14 -27  52 W16G26    30.24R WCI -38
NANTUCKET      CLOUDY    -1  -9  68 NW24      30.30R HAZE    WCI -25
PROVIDENCE     MOSUNNY   -8 -24  45 NW17G24   30.38R WCI -31
HARTFORD       SUNNY    -10 -26  45 NW13      30.44R WCI -30
ALBANY         MOSUNNY  -12 -26  49 NW10      30.53R WCI -31
NEW YORK CITY  MOSUNNY    2 -12  52 NW24G33   30.51R WCI -21
$$

ANZ081-ANZ082-ANZ150-NHZ014-MEZ023>029-141400-
COASTAL MARINE OBSERVATIONS

STATION/POSITION TIME  TEMP    WIND        PRES    WAVE
                       AIR SEA DIR/SP/G            HT/PER
                 (UTC) (F)     (DEG/KT/KT) (MB)    (FT/S)
MOUNT DESERT ROC 1200    4     330/ 33/ 37 1017.5R
MATINICUS ROCK   1200          340/ 30/ 35 1020.0R
ISLE OF SHOALS   1200   -8     310/ 22/ 26 1024.6R
CASHES LEDGE BUO 1250    7 41  330/ 25/ 31 1021.3R   8/ 6
GEORGES BANK BUO 1150   17 44              1015.9   17/11
$$

.............KEY..............
   WCI - WIND CHILL
   TC  - TEMPERATURE IN CELSIUS
   VSB - VISIBILITY IN MILES
   HX  - HEAT INDEX
   FAIR- INDICATES FEW OR NO CLOUDS BELOW 12,000 FT, WITH NO
         SIGNIFICANT WEATHER AND/OR OBSTRUCTIONS TO VISIBILITY.





USA.gov is the U.S. government's official web portal to all federal, state and local government web resources and services.